SCP
0 0 0 0 0 0 0 0 0 0 0 0 0 0 0 0 0 0 0 0 0 0 0 0 0 0 0 0 0 -0 -0 0
0 0 0 0 0 0 0 0 0 0 0 0 0 0 0 0 0 0 0 0 0 0 0 0 0 0 0 0 0 0 0 0
0 0 0 0 0 0 0 0 0 0 0 0 0 0 0 0 0 0 0 0 0 0 0 -0 0 0 0 0 0 0 0 0
0 0 0 0 0 0 0 0 0 0 0 0 0 0 0 0 0 -0 -0 0 0 -0 -0 -0 0 0 -0 -0 -0 -0 -0 0
0 0 0 0 0 0 0 0 0 0 0 0 -0 -0 0 0 0 0 0 0 0 0 0 0 0 0 -0 -0 -0 -0 -0 -0
0 0 0 0 0 0 0 0 0 0 -0 0 0 -0 -0 -0 -0 -0 -0 -0 -0 0 0 0 0 0 0 -0 -0 -0 0 -0
0 0 0 0 0 -0 -0 0 0 0 -0 -0 -0 -0 -0 -0 -0 -0 -0 -0 -0 -0 -0 0 0 0 0 0 -0 0 0 0
0 0 0 0 -0 -0 0 -0 -0 -0 -0 -0 -0 -0 -0 -0 -0 -0 -0 -0 -0 -0 0 0 0 0 0 -0 -0 -0 0 0
0 0 -0 -0 0 -0 -0 -0 -0 -0 -0 -0 0 0 0 -0 0 -0 0 0 0 0 0 0 0 0 0 -0 -0 0 0 0
0 -0 0 -0 0 -0 -0 -0 -0 -0 0 0 0 -0 -0 0 0 0 0 -0 0 0 0 0 0 0 0 0 0 0 0 0
0 0 -0 0 -0 -0 -0 0 -0 -0 0 0 0 0 0 0 0 0 0 -0 -0 0 0 0 0 0 0 0 0 -0 -0 -0
0 -0 0 0 -0 -0 -0 -0 -0 -0 0 0 0 -0 0 -0 -0 -0 -0 -0 -0 -0 -0 -0 0 0 0 0 -0 0 -0 0
-0 -0 -0 -0 -0 -0 -0 -0 -0 -0 -0 0 -0 0 -0 -0 -0 -0 0 0 -0 -0 -0 0 0 0 -0 0 -0 0 0 0
0 -0 -0 0 0 0 0 0 0 0 -0 -0 0 -0 -0 -0 0 -0 0 0 0 -0 -0 0 0 0 0 0 0 0 0 0
0 0 0 0 0 0 -0 0 0 0 0 0 0 0 -0 -0 -0 -0 -0 -0 -0 0 -0 0 0 0 0 0 0 0 0 0
0 0 0 0 -0 -0 -0 -0 0 0 0 0 0 0 0 -0 -0 -0 0 0 0 0 0 0 0 0 0 0 0 0 0 0
0 0 -0 -0 -0 0 0 0 0 -0 0 -0 0 0 -0 -0 -0 0 0 0 0 0 0 0 0 0 0 0 0 0 0 0
0 0 0 0 0 0 0 -0 0 0 0 0 0 0 0 0 0 0 0 0 0 0 0 0 0 0 0 0 0 0 0 0
-0 0 0 0 0 0 0 -0 0 0 0 0 0 0 0 0 0 0 0 0 0 0 0 0 0 0 0 0 0 0 0 0
0 0 0 0 0 0 0 0 0 0 0 0 0 0 0 0 0 0 0 0 0 0 0 0 0 0 0 0 0 0 0 0
Wind_Speed_500mb
45 48 48 50 56 54 50 38 43 53 57 54 53 48 54 46 41 40 40 33 32 30 31 28 28 23 24 23 27 26 23 22
49 52 53 51 50 48 45 43 47 46 47 44 38 44 45 37 32 32 31 29 26 20 24 26 23 26 29 30 30 26 24 22
53 60 64 66 61 54 47 40 54 40 35 38 36 43 22 22 23 26 28 27 23 25 28 26 24 22 30 29 18 16 19 20
60 61 64 62 52 48 40 42 31 38 31 29 33 21 20 21 21 20 24 23 21 22 20 17 21 28 27 28 20 21 22 20
58 59 58 51 50 45 33 24 40 26 29 17 16 18 25 25 23 21 23 19 17 19 18 15 19 24 28 20 27 20 27 29
52 46 49 44 40 29 25 24 25 17 10 14 19 23 23 20 18 17 17 14 16 17 15 18 17 24 27 23 18 13 24 23
39 41 41 36 36 34 16 14 9 9 14 18 21 19 22 18 17 20 20 19 19 19 18 18 17 18 20 22 26 17 16 24
43 39 36 29 22 17 16 20 8 15 16 18 19 21 22 23 20 20 22 20 22 21 18 24 22 24 24 15 16 13 16 20
34 30 30 25 16 16 11 11 14 15 15 17 20 28 20 28 28 17 21 24 26 26 23 23 22 21 22 19 17 21 20 19
28 25 22 25 27 14 16 18 20 15 14 18 21 26 23 22 26 23 25 27 30 26 23 24 22 21 24 25 27 22 20 16
19 16 21 16 16 15 18 20 18 19 22 23 23 29 28 25 25 26 27 31 32 31 28 25 22 21 28 31 28 23 23 15
12 18 17 15 17 16 16 17 22 20 19 18 19 20 20 24 24 28 27 30 29 30 25 26 24 22 20 24 24 28 24 19
17 9 12 12 14 17 15 17 19 20 19 17 21 21 15 17 24 28 27 40 32 27 27 31 34 22 21 24 23 20 15 10
8 11 6 12 14 16 17 19 20 24 20 21 19 21 23 18 23 9 29 33 26 25 25 28 35 30 24 20 19 18 20 18
12 6 13 12 16 21 27 28 23 27 28 20 19 21 19 22 22 22 22 25 26 26 25 29 31 21 23 35 35 24 28 25
7 9 12 21 26 29 31 31 22 24 21 25 22 22 25 27 27 27 26 31 31 21 19 27 24 27 27 24 28 40 32 38
8 17 24 24 26 27 27 27 28 27 25 27 23 22 26 29 30 35 34 33 35 37 30 21 20 17 24 31 34 41 44 47
18 25 24 23 25 24 24 23 22 24 28 29 28 28 32 29 30 38 40 45 44 42 46 34 30 28 36 41 45 46 47 49
22 23 24 24 24 24 24 24 23 24 24 32 32 29 28 34 42 45 48 45 47 57 58 42 40 44 45 44 44 47 48 44
20 24 24 25 25 25 23 22 25 28 32 35 31 33 39 46 54 60 65 67 71 72 70 73 65 62 54 50 48 48 48 50
Wind_Direction_500mb
314 316 322 323 319 322 307 311 320 320 320 315 305 309 313 321 319 320 314 319 322 329 333 342 341 341 334 330 336 325 315 311
326 327 323 324 329 323 309 316 318 325 315 310 323 317 320 328 335 329 328 322 333 12 12 15 4 1 359 347 340 348 346 333
331 326 321 314 317 320 319 318 315 317 312 317 319 321 340 334 333 347 7 18 2 349 324 313 330 355 345 344 345 354 10 11
327 323 318 317 314 314 316 320 317 315 319 316 317 337 339 335 331 340 348 341 356 358 353 9 17 15 25 28 37 29 12 31
328 326 322 323 316 312 319 315 312 315 323 347 339 327 327 329 325 333 336 342 3 5 13 30 31 27 18 20 53 44 50 55
331 332 332 329 330 325 309 317 317 341 15 339 327 331 340 345 347 344 353 358 0 358 2 17 38 23 28 36 36 61 43 56
334 332 333 333 329 326 342 325 52 7 337 342 348 354 355 4 10 3 4 14 7 5 15 26 26 26 24 25 39 52 42 46
336 337 346 344 347 357 355 77 16 355 352 354 350 13 13 357 350 358 8 19 10 17 20 44 39 42 31 35 33 39 48 48
338 348 3 356 3 63 58 8 348 347 357 9 16 20 9 5 9 15 22 21 21 31 34 30 34 32 31 21 28 41 42 50
348 358 2 70 48 24 3 10 6 8 25 25 23 9 7 6 8 22 18 21 24 25 31 30 29 27 14 29 38 43 36 36
357 19 83 19 23 25 21 19 30 20 32 33 25 16 15 13 22 29 26 26 21 17 25 27 20 16 7 18 6 10 25 31
14 90 35 26 31 32 26 20 17 22 25 20 12 3 12 27 28 37 32 24 17 13 13 25 7 13 4 9 8 15 359 7
103 32 30 46 30 29 22 5 1 0 358 352 7 358 13 37 37 43 29 17 24 34 26 7 357 351 344 350 0 7 10 20
82 74 26 14 30 19 4 358 354 352 358 13 3 349 10 28 24 7 28 30 30 30 32 28 25 32 29 27 30 42 59 71
83 14 33 9 359 352 350 343 352 47 36 20 19 22 21 33 47 27 26 28 15 40 35 21 32 21 26 51 59 69 69 67
72 47 16 7 16 16 18 23 33 50 29 36 36 37 43 50 44 41 56 48 48 44 23 14 41 44 39 43 60 62 81 81
55 27 28 28 31 31 29 29 39 35 40 39 46 53 48 49 52 58 57 51 44 49 48 60 66 59 54 60 74 82 74 76
38 41 35 34 34 27 28 34 40 43 48 53 57 56 53 48 55 64 61 64 66 48 42 55 69 76 78 78 76 81 83 86
51 50 42 40 35 31 43 44 48 51 56 63 65 62 55 67 75 69 65 61 60 66 67 68 74 79 83 82 81 82 84 86
57 49 46 40 46 48 46 48 53 60 69 70 69 68 77 78 80 81 76 71 63 69 69 69 73 77 79 79 80 82 81 83
Wind_Speed_850mb
45 48 48 50 56 54 50 38 43 53 57 54 53 48 54 46 41 40 40 33 32 30 31 28 28 23 24 23 27 26 23 22
49 52 53 51 50 48 45 43 47 46 47 44 38 44 45 37 32 32 31 29 26 20 24 26 23 26 29 30 30 26 24 22
53 60 64 66 61 54 47 40 54 40 35 38 36 43 22 22 23 26 28 27 23 25 28 26 24 22 30 29 18 16 19 20
60 61 64 62 52 48 40 42 31 38 31 29 33 21 20 21 21 20 24 23 21 22 20 17 21 28 27 28 20 21 22 20
58 59 58 51 50 45 33 24 40 26 29 17 16 18 25 25 23 21 23 19 17 19 18 15 19 24 28 20 27 20 27 29
52 46 49 44 40 29 25 24 25 17 10 14 19 23 23 20 18 17 17 14 16 17 15 18 17 24 27 23 18 13 24 23
39 41 41 36 36 34 16 14 9 9 14 18 21 19 22 18 17 20 20 19 19 19 18 18 17 18 20 22 26 17 16 24
43 39 36 29 22 17 16 20 8 15 16 18 19 21 22 23 20 20 22 20 22 21 18 24 22 24 24 15 16 13 16 20
34 30 30 25 16 16 11 11 14 15 15 17 20 28 20 28 28 17 21 24 26 26 23 23 22 21 22 19 17 21 20 19
28 25 22 25 27 14 16 18 20 15 14 18 21 26 23 22 26 23 25 27 30 26 23 24 22 21 24 25 27 22 20 16
19 16 21 16 16 15 18 20 18 19 22 23 23 29 28 25 25 26 27 31 32 31 28 25 22 21 28 31 28 23 23 15
12 18 17 15 17 16 16 17 22 20 19 18 19 20 20 24 24 28 27 30 29 30 25 26 24 22 20 24 24 28 24 19
17 9 12 12 14 17 15 17 19 20 19 17 21 21 15 17 24 28 27 40 32 27 27 31 34 22 21 24 23 20 15 10
8 11 6 12 14 16 17 19 20 24 20 21 19 21 23 18 23 9 29 33 26 25 25 28 35 30 24 20 19 18 20 18
12 6 13 12 16 21 27 28 23 27 28 20 19 21 19 22 22 22 22 25 26 26 25 29 31 21 23 35 35 24 28 25
7 9 12 21 26 29 31 31 22 24 21 25 22 22 25 27 27 27 26 31 31 21 19 27 24 27 27 24 28 40 32 38
8 17 24 24 26 27 27 27 28 27 25 27 23 22 26 29 30 35 34 33 35 37 30 21 20 17 24 31 34 41 44 47
18 25 24 23 25 24 24 23 22 24 28 29 28 28 32 29 30 38 40 45 44 42 46 34 30 28 36 41 45 46 47 49
22 23 24 24 24 24 24 24 23 24 24 32 32 29 28 34 42 45 48 45 47 57 58 42 40 44 45 44 44 47 48 44
20 24 24 25 25 25 23 22 25 28 32 35 31 33 39 46 54 60 65 67 71 72 70 73 65 62 54 50 48 48 48 50
Wind_Direction_850mb
314 316 322 323 319 322 307 311 320 320 320 315 305 309 313 321 319 320 314 319 322 329 333 342 341 341 334 330 336 325 315 311
326 327 323 324 329 323 309 316 318 325 315 310 323 317 320 328 335 329 328 322 333 12 12 15 4 1 359 347 340 348 346 333
331 326 321 314 317 320 319 318 315 317 312 317 319 321 340 334 333 347 7 18 2 349 324 313 330 355 345 344 345 354 10 11
327 323 318 317 314 314 316 320 317 315 319 316 317 337 339 335 331 340 348 341 356 358 353 9 17 15 25 28 37 29 12 31
328 326 322 323 316 312 319 315 312 315 323 347 339 327 327 329 325 333 336 342 3 5 13 30 31 27 18 20 53 44 50 55
331 332 332 329 330 325 309 317 317 341 15 339 327 331 340 345 347 344 353 358 0 358 2 17 38 23 28 36 36 61 43 56
334 332 333 333 329 326 342 325 52 7 337 342 348 354 355 4 10 3 4 14 7 5 15 26 26 26 24 25 39 52 42 46
336 337 346 344 347 357 355 77 16 355 352 354 350 13 13 357 350 358 8 19 10 17 20 44 39 42 31 35 33 39 48 48
338 348 3 356 3 63 58 8 348 347 357 9 16 20 9 5 9 15 22 21 21 31 34 30 34 32 31 21 28 41 42 50
348 358 2 70 48 24 3 10 6 8 25 25 23 9 7 6 8 22 18 21 24 25 31 30 29 27 14 29 38 43 36 36
357 19 83 19 23 25 21 19 30 20 32 33 25 16 15 13 22 29 26 26 21 17 25 27 20 16 7 18 6 10 25 31
14 90 35 26 31 32 26 20 17 22 25 20 12 3 12 27 28 37 32 24 17 13 13 25 7 13 4 9 8 15 359 7
103 32 30 46 30 29 22 5 1 0 358 352 7 358 13 37 37 43 29 17 24 34 26 7 357 351 344 350 0 7 10 20
82 74 26 14 30 19 4 358 354 352 358 13 3 349 10 28 24 7 28 30 30 30 32 28 25 32 29 27 30 42 59 71
83 14 33 9 359 352 350 343 352 47 36 20 19 22 21 33 47 27 26 28 15 40 35 21 32 21 26 51 59 69 69 67
72 47 16 7 16 16 18 23 33 50 29 36 36 37 43 50 44 41 56 48 48 44 23 14 41 44 39 43 60 62 81 81
55 27 28 28 31 31 29 29 39 35 40 39 46 53 48 49 52 58 57 51 44 49 48 60 66 59 54 60 74 82 74 76
38 41 35 34 34 27 28 34 40 43 48 53 57 56 53 48 55 64 61 64 66 48 42 55 69 76 78 78 76 81 83 86
51 50 42 40 35 31 43 44 48 51 56 63 65 62 55 67 75 69 65 61 60 66 67 68 74 79 83 82 81 82 84 86
57 49 46 40 46 48 46 48 53 60 69 70 69 68 77 78 80 81 76 71 63 69 69 69 73 77 79 79 80 82 81 83